Regional Weather Roundup
Issued by NWS

Home | Current Version | Previous Version | Graphics & Text | Print | Product List | Glossary On
Versions: 1 2 3 4 5 6 7 8 9 10 11 12 13 14 15 16 17 18 19 20 21 22 23 24 25 26 27 28 29 30 31 32 33 34 35 36 37 38 39 40 41 42 43 44 45 46 47 48 49 50
000
ASUS43 KIND 221609
RWRIN

WEATHER ROUNDUP FOR INDIANA
NATIONAL WEATHER SERVICE INDIANAPOLIS IN
1200 PM EDT SAT APR 22 2017

NOTE: "FAIR" INDICATES FEW OR NO CLOUDS BELOW 12,000 FEET WITH NO
SIGNIFICANT WEATHER AND/OR OBSTRUCTIONS TO VISIBILITY.

* - STATION DOES NOT REPORT WEATHER SUCH AS PRECIPITATION OR FOG.

+ - STATION NOT QUALITY CONTROLLED BY THE NATIONAL WEATHER SERVICE.
    USE DATA WITH CAUTION...ESPECIALLY DEWPOINT AND RELATIVE
    HUMIDITY OBSERVATIONS.

INZ001>003-010>013-019-020-221700-
NORTHWEST INDIANA

CITY           SKY/WX    TMP DP  RH WIND       PRES   REMARKS
GARY /AIRPORT/ PTSUNNY   50  34  53 NE14      30.21R
KNOX *+        SUNNY     54  12  19 NE12G20   30.17S
LA PORTE +     MOSUNNY   51  35  54 N10       30.18S
MICHIGAN CITY+ MOSUNNY   50  36  57 N8        30.19S
MONTICELLO +   SUNNY     52  34  49 E14G22    30.15R
RENSSELAER +   SUNNY     55  34  44 NE14      30.16S
VALPARAISO     MOSUNNY   54  34  46 NE12      30.18S

$$

LMZ046-743>745-221700-
SOUTHERN LAKE MICHIGAN

STATION/POSITION TIME  TEMP    WIND        PRES    WAVE
                       AIR SEA DIR/SP/G            HT
                 (UTC) (F)     (DEG/KT/KT) (MB)    (FT)
BURNS HARBOR     1540   44      20/ 12/ 14 1023.0R
MICHIGAN CITY    1540   43      10/ 14/ 15   N/A

$$

INZ004-005-014>016-021>024-221700-
NORTH CENTRAL INDIANA

CITY           SKY/WX    TMP DP  RH WIND       PRES   REMARKS
ELKHART        SUNNY     54  32  43 NE12      30.17F
GOSHEN         CLOUDY    52  35  52 NE14      30.17S
LOGANSPORT +   PTSUNNY   50  34  53 NE9G20    30.16R
PERU/GRISSOM   CLOUDY    49  36  62 NE16      30.14R
ROCHESTER +    PTSUNNY   54  34  47 NE14G21   30.15S
SOUTH BEND     MOSUNNY   50  34  54 NE13      30.18S
WARSAW +       PTSUNNY   50  34  53 NE10G20   30.15S

$$

INZ006>009-017-018-025>027-221700-
NORTHEAST INDIANA

CITY           SKY/WX    TMP DP  RH WIND       PRES   REMARKS
ANGOLA *+      SUNNY     52  32  46 NE14      30.15F
AUBURN +       CLOUDY    52  34  50 NE13G18   30.16F
FORT WAYNE     PTSUNNY   49  34  56 NE21G26   30.15F
HUNTINGTON +   CLOUDY    49  34  56 E14G20    30.15S
KENDALLVILLE + MOSUNNY   51  33  50 NE14      30.15F

$$

INZ028-029-035-036-043>045-051>053-221700-
WEST CENTRAL INDIANA

CITY           SKY/WX    TMP DP  RH WIND       PRES   REMARKS
CRAWFORDSVL +  CLOUDY    47  38  69 NE15      30.12R
GREENCASTLE +  CLOUDY    46  34  61 E12       30.10R
LAFAYETTE      SUNNY     52  39  61 E21G26    30.14R
TERRE HAUTE    CLOUDY    48  37  65 NE13      30.09F

$$

INZ030>032-037>040-046>048-054>057-064-065-221700-
CENTRAL INDIANA

CITY           SKY/WX    TMP DP  RH WIND       PRES   REMARKS
ANDERSON       MOSUNNY   48  36  61 NE12G17   30.12S
CP ATTERBURY + CLOUDY    50  39  66 NE15G23   30.09R
COLUMBUS       PTSUNNY   50  39  66 NE16      30.08F
FISHERS *+     CLOUDY    46  39  76 E12G22    30.11R
FRANKFORT +    CLOUDY    51  39  63 E16G22    30.15R
GREENWOOD *+   CLOUDY    48  37  64 NE14G21   30.10S
INDIANAPOLIS   CLOUDY    49  37  63 NE15G22   30.09S
-EAGLE CREEK   CLOUDY    49  35  58 E17G23    30.09S
KOKOMO +       CLOUDY    48  35  60 E18       30.14S
MARION +       CLOUDY    46  36  66 E14G20    30.15R
MT COMFORT *+  CLOUDY    48  36  61 NE14G24   30.11R
SHELBYVILLE    CLOUDY    49  38  65 NE12      30.09R
ZIONSVILLE +   CLOUDY    46  36  69 NE14      30.12S

$$

INZ033-034-041-042-049-050-058-059-221700-
EAST CENTRAL INDIANA

CITY           SKY/WX    TMP DP  RH WIND       PRES   REMARKS
MUNCIE         PTSUNNY   50  35  56 NE17      30.12R
RICHMOND +     CLOUDY    46  37  71 NE15      30.10S

$$

INZ060-061-067>069-081>083-085>088-221700-
SOUTHWEST INDIANA

CITY           SKY/WX    TMP DP  RH WIND       PRES   REMARKS
EVANSVILLE     LGT RAIN  49  44  83 VRB5      30.07R
HUNTINGBURG *+ LGT RAIN  49  46  90 NE10      30.04F
WASHINGTON +   CLOUDY    49  40  70 MISG      30.04F

$$

INZ062-063-066-070>080-084-089>092-221700-
SOUTH CENTRAL AND SOUTHEAST INDIANA

CITY           SKY/WX    TMP DP  RH WIND       PRES   REMARKS
BEDFORD +      CLOUDY    50  39  66 NE14      30.05R
BLOOMINGTON    CLOUDY    49  39  68 NE12G20   30.07R
MADISON *+     CLOUDY    48  41  76 NE13G21   30.07S
NORTH VERNON + CLOUDY    50  41  71 NE10      30.07S
SEYMOUR +      CLOUDY    50  39  66 NE17      30.07R

$$





USA.gov is the U.S. government's official web portal to all federal, state and local government web resources and services.